Location: Niagara
(43.2500°N, 79.0670°W)
Time: 09:58:54
(UTC-05:00)

Tiangong 2 - Pass Details

Date: 08 October 2017
Orbit: 386 x 390 km, 42.8° (Epoch: 13 December)

Event Time Altitude Azimuth Distance (km) Brightness Sun altitude
Exits shadow 05:54:13 11° 188° (S) 1,340 3.6 -16.8°
Maximum altitude 05:56:05 17° 149° (SSE) 1,078 3.6 -16.4°
Drops below altitude 10° 05:58:16 10° 106° (ESE) 1,423 5.0 -16.0°
Sets 06:00:49 0° 86° (E) 2,283 6.9 -15.6°
